• In Belarus
  • List of Countries
  • For 7 days
  • Water Temperature
  • Satellite Maps
  • Weather Map
  • Weather Widgets
  • user-avatar
    Login

    Hourly Weather Río Gallegos

    Today, 18 December, Monday

    Time Temperature Precipitation Wind Pressure Humidity
    00:00 +5°C° 0 mm 13 mps 749 mmHg 59%
    01:00 +6°C° 0 mm 11 mps 749 mmHg 60%
    02:00 +6°C° 0 mm 11 mps 749 mmHg 61%
    03:00 +6°C° 0 mm 11 mps 749 mmHg 62%
    04:00 +6°C° 0 mm 11 mps 750 mmHg 63%
    05:00 +7°C° 0 mm 12 mps 750 mmHg 58%
    06:00 +8°C° 0 mm 13 mps 750 mmHg 53%
    07:00 +9°C° 0 mm 15 mps 750 mmHg 48%
    08:00 +10°C° 0 mm 14 mps 751 mmHg 46%
    09:00 +10°C° 0 mm 14 mps 751 mmHg 45%
    10:00 +12°C° 0 mm 14 mps 751 mmHg 43%
    11:00 +12°C° 0 mm 13 mps 752 mmHg 43%
    12:00 +12°C° 0 mm 13 mps 752 mmHg 43%
    13:00 +12°C° 0 mm 13 mps 753 mmHg 43%
    14:00 +12°C° 0 mm 12 mps 753 mmHg 44%
    15:00 +13°C° 0 mm 11 mps 753 mmHg 44%
    16:00 +13°C° 0 mm 11 mps 754 mmHg 45%
    17:00 +12°C° 0 mm 10 mps 754 mmHg 48%
    18:00 +11°C° 0 mm 9 mps 755 mmHg 50%
    19:00 +11°C° 0 mm 7 mps 755 mmHg 53%
    20:00 +10°C° 0 mm 6 mps 755 mmHg 56%
    21:00 +10°C° 0 mm 5 mps 756 mmHg 58%
    22:00 +10°C° 0 mm 4 mps 756 mmHg 61%
    23:00 +10°C° 0 mm 4 mps 756 mmHg 63%

    Tomorrow, 19 December, Tuesday

    Time Temperature Precipitation Wind Pressure Humidity
    00:00 +9°C° 0 mm 3 mps 756 mmHg 64%
    01:00 +9°C° 0 mm 3 mps 755 mmHg 66%
    02:00 +9°C° 0 mm 3 mps 755 mmHg 67%
    03:00 +9°C° 0 mm 3 mps 755 mmHg 68%
    04:00 +9°C° 0 mm 3 mps 754 mmHg 70%
    05:00 +9°C° 0 mm 5 mps 754 mmHg 64%
    06:00 +10°C° 0 mm 7 mps 754 mmHg 59%
    07:00 +12°C° 0 mm 8 mps 753 mmHg 53%
    08:00 +13°C° 0 mm 9 mps 753 mmHg 55%
    09:00 +13°C° 0 mm 9 mps 752 mmHg 56%
    10:00 +14°C° 0 mm 10 mps 751 mmHg 57%
    11:00 +15°C° 0.1 mm 9 mps 750 mmHg 60%
    12:00 +15°C° 0.1 mm 8 mps 749 mmHg 62%
    13:00 +15°C° 0.1 mm 7 mps 748 mmHg 64%
    14:00 +15°C° 0 mm 7 mps 747 mmHg 61%
    15:00 +16°C° 0 mm 7 mps 746 mmHg 57%
    16:00 +17°C° 0 mm 7 mps 745 mmHg 54%
    17:00 +17°C° 0 mm 7 mps 744 mmHg 54%
    18:00 +18°C° 0 mm 7 mps 743 mmHg 55%
    19:00 +18°C° 0 mm 7 mps 743 mmHg 56%
    20:00 +17°C° 0.2 mm 7 mps 742 mmHg 59%
    21:00 +17°C° 0.2 mm 7 mps 741 mmHg 62%
    22:00 +17°C° 0.2 mm 7 mps 741 mmHg 64%
    23:00 +16°C° 0 mm 7 mps 740 mmHg 64%

    Day after tomorrow, 20 December, Wednesday

    Time Temperature Precipitation Wind Pressure Humidity
    00:00 +16°C° 0 mm 6 mps 739 mmHg 64%
    01:00 +15°C° 0 mm 6 mps 738 mmHg 64%
    02:00 +15°C° 0 mm 5 mps 738 mmHg 66%
    03:00 +14°C° 0 mm 4 mps 737 mmHg 69%
    04:00 +14°C° 0 mm 4 mps 737 mmHg 72%
    05:00 +13°C° 0.5 mm 6 mps 737 mmHg 71%
    06:00 +10°C° 0.5 mm 9 mps 738 mmHg 70%
    07:00 +8°C° 0.5 mm 11 mps 738 mmHg 69%
    08:00 +10°C° 0.1 mm 12 mps 739 mmHg 60%
    09:00 +12°C° 0.1 mm 12 mps 739 mmHg 51%
    10:00 +13°C° 0.1 mm 12 mps 740 mmHg 42%
    11:00 +13°C° 0 mm 13 mps 740 mmHg 39%
    12:00 +13°C° 0 mm 13 mps 741 mmHg 37%
    13:00 +12°C° 0 mm 13 mps 741 mmHg 35%
    14:00 +12°C° 0 mm 13 mps 742 mmHg 35%
    15:00 +12°C° 0 mm 12 mps 742 mmHg 35%
    16:00 +12°C° 0 mm 12 mps 742 mmHg 35%
    17:00 +11°C° 0 mm 11 mps 743 mmHg 37%
    18:00 +11°C° 0 mm 11 mps 743 mmHg 38%
    19:00 +9°C° 0 mm 10 mps 743 mmHg 40%
    20:00 +8°C° 0 mm 10 mps 744 mmHg 42%
    21:00 +7°C° 0 mm 9 mps 744 mmHg 45%
    22:00 +6°C° 0 mm 8 mps 744 mmHg 48%
    23:00 +6°C° 0 mm 9 mps 744 mmHg 48%

    21 December, Thursday

    Time Temperature Precipitation Wind Pressure Humidity
    00:00 +6°C° 0 mm 9 mps 744 mmHg 48%
    01:00 +6°C° 0 mm 9 mps 744 mmHg 48%
    02:00 +6°C° 0 mm 9 mps 744 mmHg 48%
    03:00 +5°C° 0 mm 8 mps 745 mmHg 49%
    04:00 +5°C° 0 mm 8 mps 745 mmHg 49%
    05:00 +6°C° 0 mm 8 mps 745 mmHg 47%
    06:00 +7°C° 0 mm 9 mps 745 mmHg 44%
    07:00 +8°C° 0 mm 10 mps 745 mmHg 41%
    08:00 +9°C° 0 mm 10 mps 744 mmHg 39%
    09:00 +10°C° 0 mm 9 mps 744 mmHg 36%
    10:00 +11°C° 0 mm 8 mps 744 mmHg 34%
    11:00 +11°C° 0 mm 8 mps 743 mmHg 35%
    12:00 +12°C° 0 mm 8 mps 743 mmHg 35%
    13:00 +12°C° 0 mm 7 mps 743 mmHg 35%
    14:00 +12°C° 0 mm 8 mps 743 mmHg 36%
    15:00 +12°C° 0 mm 8 mps 743 mmHg 37%
    16:00 +11°C° 0 mm 8 mps 743 mmHg 38%
    17:00 +11°C° 0.1 mm 9 mps 743 mmHg 40%
    18:00 +10°C° 0.1 mm 9 mps 744 mmHg 42%
    19:00 +8°C° 0.1 mm 10 mps 744 mmHg 45%
    20:00 +7°C° 0 mm 9 mps 744 mmHg 49%
    21:00 +6°C° 0 mm 9 mps 745 mmHg 54%
    22:00 +5°C° 0 mm 9 mps 745 mmHg 59%
    23:00 +5°C° 0 mm 9 mps 745 mmHg 61%

    22 December, Friday

    Time Temperature Precipitation Wind Pressure Humidity
    00:00 +3°C° 0 mm 9 mps 746 mmHg 62%
    01:00 +3°C° 0 mm 9 mps 746 mmHg 64%
    02:00 +2°C° 0 mm 9 mps 746 mmHg 64%
    03:00 +2°C° 0 mm 9 mps 747 mmHg 64%
    04:00 +2°C° 0 mm 10 mps 747 mmHg 64%
    05:00 +3°C° 0 mm 10 mps 747 mmHg 59%
    06:00 +4°C° 0 mm 11 mps 747 mmHg 55%
    07:00 +5°C° 0 mm 12 mps 748 mmHg 50%
    08:00 +5°C° 0.2 mm 12 mps 748 mmHg 49%
    09:00 +7°C° 0.2 mm 13 mps 748 mmHg 48%
    10:00 +7°C° 0.2 mm 13 mps 748 mmHg 47%
    11:00 +7°C° 0.2 mm 13 mps 748 mmHg 46%
    12:00 +8°C° 0.2 mm 13 mps 748 mmHg 46%
    13:00 +8°C° 0.2 mm 13 mps 748 mmHg 45%
    14:00 +8°C° 0.2 mm 13 mps 748 mmHg 46%
    15:00 +8°C° 0.2 mm 13 mps 749 mmHg 46%
    16:00 +8°C° 0.2 mm 14 mps 749 mmHg 46%
    17:00 +7°C° 0.1 mm 13 mps 750 mmHg 48%
    18:00 +7°C° 0.1 mm 13 mps 751 mmHg 50%
    19:00 +5°C° 0.1 mm 13 mps 751 mmHg 52%
    20:00 +4°C° 0 mm 12 mps 752 mmHg 56%
    21:00 +4°C° 0 mm 11 mps 752 mmHg 59%
    22:00 +3°C° 0 mm 10 mps 753 mmHg 63%
    23:00 +3°C° 0 mm 10 mps 753 mmHg 65%

    23 December, Saturday

    Time Temperature Precipitation Wind Pressure Humidity
    00:00 +5°C° 0 mm 10 mps 753 mmHg 68%
    01:00 +5°C° 0 mm 10 mps 753 mmHg 70%
    02:00 +5°C° 0 mm 10 mps 753 mmHg 69%
    03:00 +5°C° 0 mm 10 mps 753 mmHg 69%
    04:00 +5°C° 0 mm 9 mps 752 mmHg 68%
    05:00 +5°C° 0.1 mm 10 mps 752 mmHg 63%
    06:00 +6°C° 0.1 mm 10 mps 752 mmHg 59%
    07:00 +7°C° 0.1 mm 11 mps 751 mmHg 54%
    08:00 +8°C° 0.2 mm 10 mps 750 mmHg 53%
    09:00 +11°C° 0.2 mm 10 mps 750 mmHg 51%
    10:00 +12°C° 0.2 mm 10 mps 749 mmHg 50%
    11:00 +13°C° 0.1 mm 10 mps 748 mmHg 49%
    12:00 +14°C° 0.1 mm 10 mps 747 mmHg 47%
    13:00 +16°C° 0.1 mm 10 mps 747 mmHg 46%
    14:00 +16°C° 0 mm 9 mps 746 mmHg 47%
    15:00 +16°C° 0 mm 8 mps 746 mmHg 47%
    16:00 +16°C° 0 mm 8 mps 745 mmHg 48%
    17:00 +15°C° 0.2 mm 6 mps 745 mmHg 54%
    18:00 +14°C° 0.2 mm 5 mps 744 mmHg 60%
    19:00 +13°C° 0.2 mm 3 mps 744 mmHg 67%
    20:00 +12°C° 0.3 mm 3 mps 743 mmHg 70%
    21:00 +11°C° 0.3 mm 3 mps 743 mmHg 74%
    22:00 +11°C° 0.3 mm 3 mps 742 mmHg 77%
    23:00 +11°C° 0.6 mm 3 mps 741 mmHg 79%
    Show more